When you browse on this site, cookies collect data to enhance your experience and personalize the content and advertising you see.
Visit our Privacy Policy to learn more. By continuing to use the site, you agree to this use of cookies and data.
  • In United Kingdom
  • List of Countries
  • For 7 days
  • Water Temperature
  • Weather Map
  • Weather Widgets
  • user-avatar
    Login

    Hourly Weather Parakou

    Today, 19 October, Saturday

    Time Temperature Precipitation Wind Pressure Humidity
    00:00 +24°C° 2.8 mm 1 mps 727 mmHg 94%
    01:00 +24°C° 0.3 mm 1 mps 726 mmHg 93%
    02:00 +24°C° 0.3 mm 1 mps 726 mmHg 92%
    03:00 +24°C° 0.3 mm 1 mps 725 mmHg 91%
    04:00 +24°C° 0 mm 1 mps 726 mmHg 92%
    05:00 +24°C° 0 mm 1 mps 726 mmHg 94%
    06:00 +24°C° 0 mm 1 mps 726 mmHg 95%
    07:00 +24°C° 0 mm 2 mps 726 mmHg 93%
    08:00 +25°C° 0 mm 2 mps 727 mmHg 92%
    09:00 +26°C° 0 mm 2 mps 727 mmHg 90%
    10:00 +28°C° 0 mm 2 mps 727 mmHg 83%
    11:00 +29°C° 0 mm 2 mps 727 mmHg 75%
    12:00 +31°C° 0 mm 2 mps 726 mmHg 67%
    13:00 +30°C° 0.9 mm 2 mps 726 mmHg 70%
    14:00 +30°C° 0.9 mm 2 mps 725 mmHg 73%
    15:00 +29°C° 0.9 mm 2 mps 724 mmHg 76%
    16:00 +28°C° 2.5 mm 2 mps 725 mmHg 81%
    17:00 +27°C° 2.5 mm 2 mps 725 mmHg 85%
    18:00 +26°C° 2.5 mm 3 mps 725 mmHg 90%
    19:00 +25°C° 1.8 mm 2 mps 726 mmHg 91%
    20:00 +25°C° 1.8 mm 2 mps 727 mmHg 93%
    21:00 +25°C° 1.8 mm 1 mps 728 mmHg 94%
    22:00 +25°C° 0.2 mm 1 mps 727 mmHg 94%
    23:00 +24°C° 0.2 mm 1 mps 727 mmHg 94%

    Tomorrow, 20 October, Sunday

    Time Temperature Precipitation Wind Pressure Humidity
    00:00 +24°C° 0.2 mm 1 mps 727 mmHg 94%
    01:00 +24°C° 0.1 mm 1 mps 727 mmHg 95%
    02:00 +24°C° 0.1 mm 1 mps 727 mmHg 96%
    03:00 +24°C° 0.1 mm 1 mps 726 mmHg 96%
    04:00 +24°C° 0 mm 1 mps 727 mmHg 96%
    05:00 +24°C° 0 mm 1 mps 727 mmHg 96%
    06:00 +24°C° 0 mm 1 mps 727 mmHg 96%
    07:00 +24°C° 0 mm 1 mps 728 mmHg 95%
    08:00 +25°C° 0 mm 1 mps 728 mmHg 94%
    09:00 +25°C° 0 mm 2 mps 729 mmHg 92%
    10:00 +27°C° 0.6 mm 2 mps 728 mmHg 87%
    11:00 +28°C° 0.6 mm 2 mps 727 mmHg 82%
    12:00 +29°C° 0.6 mm 2 mps 727 mmHg 78%
    13:00 +29°C° 0.7 mm 2 mps 726 mmHg 80%
    14:00 +29°C° 0.7 mm 2 mps 726 mmHg 82%
    15:00 +28°C° 0.7 mm 2 mps 725 mmHg 84%
    16:00 +27°C° 0.4 mm 2 mps 725 mmHg 87%
    17:00 +27°C° 0.4 mm 2 mps 726 mmHg 90%
    18:00 +26°C° 0.4 mm 2 mps 726 mmHg 92%
    19:00 +25°C° 0.1 mm 2 mps 727 mmHg 93%
    20:00 +25°C° 0.1 mm 3 mps 727 mmHg 93%
    21:00 +24°C° 0.1 mm 3 mps 728 mmHg 94%
    22:00 +24°C° 0 mm 3 mps 728 mmHg 94%
    23:00 +24°C° 0 mm 2 mps 728 mmHg 95%

    Day after tomorrow, 21 October, Monday

    Time Temperature Precipitation Wind Pressure Humidity
    00:00 +24°C° 0 mm 2 mps 728 mmHg 95%
    01:00 +24°C° 0 mm 2 mps 728 mmHg 96%
    02:00 +24°C° 0 mm 1 mps 727 mmHg 96%
    03:00 +23°C° 0 mm 1 mps 727 mmHg 97%
    04:00 +23°C° 0 mm 1 mps 728 mmHg 97%
    05:00 +23°C° 0 mm 1 mps 728 mmHg 98%
    06:00 +23°C° 0 mm 1 mps 728 mmHg 98%
    07:00 +25°C° 0 mm 1 mps 729 mmHg 92%
    08:00 +26°C° 0 mm 2 mps 729 mmHg 86%
    09:00 +28°C° 0 mm 2 mps 729 mmHg 80%
    10:00 +29°C° 0 mm 2 mps 728 mmHg 76%
    11:00 +30°C° 0 mm 2 mps 728 mmHg 71%
    12:00 +31°C° 0 mm 2 mps 727 mmHg 66%
    13:00 +32°C° 0 mm 2 mps 726 mmHg 65%
    14:00 +32°C° 0 mm 1 mps 726 mmHg 63%
    15:00 +30°C° 0 mm 0 mps 725 mmHg 62%
    16:00 +29°C° 0 mm 0 mps 725 mmHg 67%
    17:00 +29°C° 0 mm 1 mps 725 mmHg 72%
    18:00 +28°C° 0 mm 1 mps 725 mmHg 76%
    19:00 +27°C° 0.1 mm 1 mps 726 mmHg 79%
    20:00 +27°C° 0.1 mm 1 mps 726 mmHg 81%
    21:00 +26°C° 0.1 mm 1 mps 727 mmHg 84%
    22:00 +24°C° 1.7 mm 0 mps 727 mmHg 87%
    23:00 +23°C° 1.7 mm 0 mps 727 mmHg 90%

    22 October, Tuesday

    Time Temperature Precipitation Wind Pressure Humidity
    00:00 +23°C° 1.7 mm 0 mps 726 mmHg 93%
    01:00 +25°C° 1 mm 1 mps 726 mmHg 93%
    02:00 +25°C° 1 mm 1 mps 726 mmHg 93%
    03:00 +24°C° 1 mm 1 mps 726 mmHg 92%
    04:00 +24°C° 0 mm 1 mps 726 mmHg 93%
    05:00 +24°C° 0 mm 1 mps 726 mmHg 93%
    06:00 +24°C° 0 mm 1 mps 726 mmHg 93%
    07:00 +25°C° 0 mm 1 mps 726 mmHg 91%
    08:00 +25°C° 0 mm 1 mps 727 mmHg 90%
    09:00 +24°C° 0 mm 0 mps 727 mmHg 88%
    10:00 +26°C° 0 mm 0 mps 727 mmHg 79%
    11:00 +29°C° 0 mm 0 mps 726 mmHg 70%
    12:00 +31°C° 0 mm 0 mps 726 mmHg 60%
    13:00 +31°C° 0.1 mm 0 mps 725 mmHg 60%
    14:00 +31°C° 0.1 mm 0 mps 725 mmHg 59%
    15:00 +31°C° 0.1 mm 0 mps 724 mmHg 59%
    16:00 +29°C° 0.4 mm 0 mps 724 mmHg 67%
    17:00 +27°C° 0.4 mm 0 mps 725 mmHg 75%
    18:00 +27°C° 0.4 mm 1 mps 725 mmHg 83%
    19:00 +27°C° 0.1 mm 1 mps 725 mmHg 85%
    20:00 +26°C° 0.1 mm 1 mps 726 mmHg 86%
    21:00 +26°C° 0.1 mm 1 mps 726 mmHg 88%
    22:00 +26°C° 0.3 mm 1 mps 726 mmHg 90%
    23:00 +25°C° 0.3 mm 1 mps 726 mmHg 92%

    23 October, Wednesday

    Time Temperature Precipitation Wind Pressure Humidity
    00:00 +25°C° 0.3 mm 1 mps 725 mmHg 93%
    01:00 +25°C° 0 mm 1 mps 725 mmHg 94%
    02:00 +25°C° 0 mm 1 mps 725 mmHg 95%
    03:00 +25°C° 0 mm 2 mps 725 mmHg 95%
    04:00 +24°C° 0 mm 1 mps 725 mmHg 96%
    05:00 +24°C° 0 mm 1 mps 725 mmHg 96%
    06:00 +24°C° 0 mm 1 mps 725 mmHg 96%
    07:00 +26°C° 0 mm 1 mps 726 mmHg 91%
    08:00 +27°C° 0 mm 2 mps 726 mmHg 85%
    09:00 +29°C° 0 mm 2 mps 727 mmHg 79%
    10:00 +30°C° 0 mm 2 mps 726 mmHg 73%
    11:00 +31°C° 0 mm 2 mps 726 mmHg 67%
    12:00 +34°C° 0 mm 2 mps 725 mmHg 60%
    13:00 +33°C° 0 mm 1 mps 725 mmHg 61%
    14:00 +33°C° 0 mm 1 mps 724 mmHg 63%
    15:00 +33°C° 0 mm 1 mps 724 mmHg 64%
    16:00 +31°C° 0.4 mm 1 mps 724 mmHg 71%
    17:00 +29°C° 0.4 mm 1 mps 724 mmHg 79%
    18:00 +27°C° 0.4 mm 2 mps 724 mmHg 86%
    19:00 +27°C° 0.3 mm 2 mps 725 mmHg 88%
    20:00 +26°C° 0.3 mm 2 mps 725 mmHg 90%
    21:00 +26°C° 0.3 mm 2 mps 726 mmHg 91%
    22:00 +26°C° 0.1 mm 2 mps 726 mmHg 92%
    23:00 +25°C° 0.1 mm 2 mps 726 mmHg 92%

    24 October, Thursday

    Time Temperature Precipitation Wind Pressure Humidity
    00:00 +25°C° 0.1 mm 2 mps 726 mmHg 93%
    01:00 +25°C° 0.5 mm 2 mps 726 mmHg 93%
    02:00 +25°C° 0.5 mm 2 mps 725 mmHg 94%
    03:00 +24°C° 0.5 mm 2 mps 725 mmHg 94%
    04:00 +24°C° 0 mm 2 mps 725 mmHg 95%
    05:00 +24°C° 0 mm 2 mps 726 mmHg 96%
    06:00 +24°C° 0 mm 2 mps 726 mmHg 97%
    07:00 +25°C° 0 mm 2 mps 726 mmHg 92%
    08:00 +26°C° 0 mm 2 mps 727 mmHg 88%
    09:00 +27°C° 0 mm 2 mps 727 mmHg 84%
    10:00 +29°C° 0 mm 2 mps 727 mmHg 77%
    11:00 +30°C° 0 mm 2 mps 726 mmHg 71%
    12:00 +31°C° 0 mm 2 mps 726 mmHg 64%
    13:00 +31°C° 0.2 mm 2 mps 725 mmHg 66%
    14:00 +31°C° 0.2 mm 2 mps 725 mmHg 68%
    15:00 +30°C° 0.2 mm 2 mps 724 mmHg 70%
    16:00 +29°C° 1.9 mm 1 mps 725 mmHg 76%
    17:00 +28°C° 1.9 mm 1 mps 725 mmHg 82%
    18:00 +27°C° 1.9 mm 1 mps 725 mmHg 88%
    19:00 +26°C° 0 mm 1 mps 726 mmHg 90%
    20:00 +26°C° 0 mm 1 mps 726 mmHg 91%
    21:00 +25°C° 0 mm 1 mps 727 mmHg 92%
    22:00 +25°C° 0.3 mm 1 mps 726 mmHg 93%
    23:00 +25°C° 0.3 mm 1 mps 726 mmHg 94%
    Show more